SL-16 DEB, 39713

Orbit data source: Space-Track

SL-16 DEB, 39713 is space debris in LEO originally from a launch on Fri, 25 Dec 1992 UTC launched from the Tyuratam Missile And Space Complex (TTMTR). Debris objects in space refer to the collection of defunct objects orbiting the Earth. Examples of debris include non-operational satellites, rocket bodies, and fragments generated from explosions, collisions, or faulty payload assembly.

Loading next visibility...
Identifier
39713, 1992-093KD
Orbit
LEO
Country
Flag of CISCIS
Related business
Manufacturer
Unknown
Mission
Spacecraft
Bus & Motor
Unknown
Mass
Unknown
Launch date (UTC)
1992-12-25 (33 years ago)
Launch vehicle
Unknown
Launch site
Tyuratam Missile And Space Complex (TTMTR)
Object type
Payload
Rocket body
Debris
Shape & HBR
Unknown shape, 0.1 m
Radar Cross Section
Small (<0.1 m²)

Expand to show TLE details & history
Last TLE update: 7 months ago

TLE from 7 months ago
0 SL-16 DEB
1 39713U 92093KD  25129.82722913  .00001335  00000-0  69797-3 0  9992
2 39713  71.1023 191.8197 0084585 303.6454  55.6620 14.14371674569293
Epoch: 2025-05-09T19:51Z
TLE epoch observation values (Epoch: 2025-05-09T19:51:12.596Z)
Latitude
-0.00002°
Longitude
26.13942°
Altitude
812.746 km
Speed
7.465 km/s
True Right ascension
12h 47m 16s
True Declination
0° 00' 00"
Sunlit
Object was in full shadow at epoch
Visualization orbit readout
Latitude
Unknown
Longitude
Unknown
Altitude
Unknown
Speed
Unknown
Apparent Right ascension
Unknown
Apparent Declination
Unknown
Sunlit
N/A
Visualization observer readout
Local Sidereal Time
16:22:01
Azimuth
Unknown
Elevation
Unknown
Doppler factor
Unknown
Orbital elements
Apogee altitude
903.44 km
Perigee altitude
781.291 km
Semi-major axis
7,220.503 km
Eccentricity
0.00846
Inclination
71.1023°
RAAN
191.8197°
Arg. of periapsis
303.6454°
True anomaly
56.46713°
Mean anomaly
55.662°
Eccentric anomaly
56.06408°
Mean motion
3.53746 °/min
Orbital period
101.77 mins
BSTAR
0.00069797
Loading maneuver chart data...
Computing Atmospheric mass density...
Loading historical data...
Loading historical data...
Loading historical data...
Loading historical data...
Loading historical data...
Loading historical data...
Loading historical data...

Documentation

Showing up to 5 results
|